GFSGL_700_rhum_114.txt.gz
RH
62 62 57 52 51 49 49 50 52 52 53 59 58 57 56 62 59 52 40 53 50 31 24 26 47 81 99 99 99 98 99 100 100 100 100 100 99 80 57 63 59 58 57
59 55 52 50 47 45 43 41 38 41 46 57 62 60 61 67 68 58 43 53 51 32 24 31 43 75 98 99 99 98 100 98 100 100 100 100 100 98 88 75 73 66 76
66 61 52 46 41 38 36 34 33 33 38 49 67 68 74 78 75 62 58 56 51 31 23 29 47 85 98 99 100 98 99 100 99 100 100 99 99 99 87 90 84 83 97
64 53 69 87 98 79 56 65 56 65 52 65 69 77 84 84 80 70 61 59 51 30 25 32 45 80 98 98 98 100 99 100 100 100 99 100 99 100 99 99 99 99 100
100 100 98 99 98 99 99 99 76 82 82 82 77 81 91 90 86 93 82 77 50 34 29 32 52 73 88 88 99 100 99 100 100 100 100 100 100 100 98 100 100 99 99
92 93 95 99 99 96 97 87 100 100 98 96 90 87 88 84 100 97 87 98 49 42 36 40 65 84 96 95 97 100 96 100 100 100 100 99 100 100 100 100 99 99 100
76 82 81 78 88 96 99 99 87 97 93 88 82 77 96 98 100 99 100 99 59 44 43 40 72 75 80 75 98 100 100 100 100 99 100 99 100 100 100 100 97 99 100
71 75 90 95 99 100 99 99 100 99 100 98 100 99 100 100 100 91 100 100 81 55 51 44 70 96 83 86 98 100 100 100 100 100 100 99 100 100 100 99 100 99 99
36 41 55 70 79 84 86 97 100 92 96 100 100 100 100 100 99 96 100 100 94 66 64 64 89 98 100 94 92 99 98 100 100 100 100 100 99 99 100 100 100 100 96
28 27 31 38 53 70 76 81 90 97 94 99 98 98 98 98 99 99 100 100 98 89 98 79 100 99 100 96 93 100 98 100 95 99 100 99 100 100 100 100 99 100 88
39 35 32 31 32 36 48 75 82 82 84 86 87 91 94 99 99 99 100 100 100 99 100 99 100 98 97 100 93 88 100 97 98 80 84 93 100 100 100 94 100 100 100
54 49 45 40 35 33 34 39 47 68 81 82 81 84 83 91 96 96 95 96 98 98 99 100 99 97 99 99 100 100 100 100 100 100 95 98 99 95 99 98 99 100 99
48 49 50 49 46 43 41 38 36 38 46 59 69 82 88 86 80 86 92 95 96 96 97 97 97 98 99 99 99 100 99 100 99 99 100 99 100 100 99 99 99 99 99
49 46 44 43 41 40 40 41 42 44 43 41 46 56 71 83 91 90 86 86 91 95 97 95 96 96 95 96 97 97 98 98 98 98 98 98 98 98 98 97 97 97 97
50 50 51 52 52 50 48 48 47 46 44 45 46 46 46 54 69 85 92 95 90 92 95 95 96 96 95 96 97 96 96 97 97 96 95 96 96 96 96 95 95 95 95
44 47 48 50 50 52 53 54 55 55 57 56 52 50 52 50 52 58 68 80 85 92 93 97 98 96 96 95 96 96 96 96 96 96 96 96 96 95 95 95 96 96 96
15 16 18 22 32 46 55 61 59 59 60 63 68 70 67 64 63 61 62 65 70 74 81 86 87 90 93 94 93 92 93 95 95 95 96 95 95 96 96 96 95 95 94
14 14 14 15 17 21 27 35 45 62 72 73 73 76 79 78 78 75 74 76 80 81 83 84 83 79 78 78 80 86 86 84 86 86 85 78 73 65 57 46 40 34 30
6 6 6 7 8 12 20 30 40 50 60 72 79 81 83 85 85 85 85 84 83 83 82 80 80 77 74 71 68 66 63 58 53 49 46 42 38 35 29 25 22 21 22
5 6 6 6 6 9 13 22 31 43 55 64 71 79 85 88 89 88 88 87 86 84 80 77 72 67 63 56 48 44 39 37 35 32 31 29 28 25 24 24 23 21 20
6 6 7 8 9 9 11 15 22 34 50 63 73 78 83 87 87 86 83 78 75 71 66 63 58 53 48 45 41 38 35 33 32 29 28 27 26 22 20 16 13 12 12
8 9 9 10 10 11 11 12 16 26 42 59 72 80 86 88 88 87 85 82 80 74 69 63 57 51 44 39 36 32 28 25 24 22 21 19 17 15 14 13 12 12 11
12 12 12 12 13 14 14 14 15 18 29 50 71 82 87 88 90 93 93 88 80 70 63 56 50 43 37 33 28 25 22 21 19 18 16 15 14 14 14 12 13 14 15
15 15 15 15 15 15 16 16 17 19 24 31 49 66 71 72 72 73 73 73 72 66 58 52 46 39 35 28 21 18 17 16 14 14 14 13 15 15 16 16 16 14 13
17 18 18 17 17 16 16 17 18 23 25 29 34 37 41 47 48 49 47 43 36 35 37 35 29 26 24 22 19 17 16 16 15 16 16 16 15 15 14 14 14 14 14
18 19 20 20 19 18 17 17 18 20 25 28 29 30 29 28 28 28 29 28 27 26 25 24 23 21 20 18 18 17 17 16 16 16 16 16 16 16 16 16 16 16 16

GFSGL_700_rhum_117.txt.gz
RH
59 56 56 55 55 54 50 48 50 51 60 64 64 58 64 69 70 62 60 56 54 59 44 50 52 33 29 42 71 86 100 100 99 98 96 100 100 100 100 98 67 55 53
74 71 66 63 60 56 56 53 52 52 58 57 60 60 66 70 72 72 68 60 65 67 58 58 55 33 29 45 72 84 100 100 100 98 98 100 99 100 100 100 99 87 76
74 69 65 60 58 56 55 53 50 46 44 45 52 58 65 72 72 74 75 71 77 74 59 66 61 35 28 39 76 91 100 98 100 99 99 98 100 100 100 100 100 94 76
67 62 59 58 57 56 54 54 46 42 40 38 39 45 55 68 77 84 80 80 94 86 67 68 69 36 27 40 71 91 96 100 98 98 98 100 100 100 100 100 99 93 78
71 90 96 94 77 74 57 61 88 77 61 83 98 64 63 66 68 76 75 88 96 96 92 85 75 38 32 50 73 81 94 99 98 100 99 100 100 99 99 100 99 97 95
92 90 92 98 100 97 100 96 100 97 100 98 97 90 87 94 92 84 85 82 93 99 91 85 81 42 39 56 72 93 94 97 99 98 100 98 100 100 100 100 100 99 99
72 80 84 85 84 83 99 100 99 100 100 100 100 96 95 94 90 87 92 100 94 100 99 99 80 53 48 64 76 97 95 99 100 88 97 100 100 100 100 99 99 100 99
44 66 78 86 91 96 98 99 100 100 100 96 92 98 99 95 82 100 95 95 100 100 99 99 78 61 57 69 69 83 88 97 99 99 98 99 99 100 99 99 99 99 99
29 28 29 44 69 78 82 90 93 94 98 97 97 100 100 100 99 98 99 100 99 99 100 100 88 68 60 68 74 84 91 100 97 100 100 100 99 100 100 100 99 99 99
40 36 32 29 30 32 40 63 72 76 83 91 94 94 98 100 98 98 99 99 100 99 100 100 100 96 99 100 98 100 97 93 98 99 100 100 100 100 99 100 100 100 99
53 50 48 44 39 36 33 33 37 53 63 70 73 72 76 86 91 94 99 98 99 100 100 99 99 99 99 83 97 89 99 97 98 100 96 100 100 100 100 99 100 100 99
43 43 42 43 44 45 44 42 40 38 36 38 44 60 75 78 77 82 92 93 95 98 99 98 99 100 99 100 99 99 100 95 98 100 99 100 99 100 95 90 100 99 100
49 52 51 49 46 42 40 39 39 39 40 40 39 38 43 54 69 86 91 89 88 87 84 90 96 96 98 98 99 99 99 99 99 99 100 100 99 100 100 100 100 99 100
39 38 36 37 36 39 46 49 48 44 41 39 38 38 40 42 43 46 63 80 91 93 93 92 89 90 95 96 97 96 96 96 98 97 98 98 97 98 99 99 99 99 99
14 14 14 14 17 21 28 34 37 41 46 48 47 45 44 42 41 43 45 48 56 72 85 88 91 93 96 94 95 95 96 96 97 95 96 96 94 96 97 97 96 96 97
13 13 13 13 13 13 13 14 15 18 24 35 44 49 54 54 52 52 53 52 51 52 57 66 81 89 91 96 97 96 95 97 95 96 95 95 96 95 96 96 96 96 97
10 10 9 8 8 8 9 11 13 15 17 22 28 38 53 62 68 67 64 63 66 67 67 66 65 66 75 82 88 93 95 95 94 95 96 95 95 95 96 96 95 96 95
5 5 5 5 5 5 5 5 6 7 11 15 20 27 36 52 67 77 80 80 78 77 76 76 75 72 71 72 74 75 78 82 84 86 89 92 93 93 94 93 92 86 78
5 5 5 5 5 5 5 6 6 6 6 8 12 19 29 43 58 73 83 86 87 86 85 84 84 82 79 76 74 72 71 69 66 62 59 54 49 45 43 38 36 33 28
5 5 5 6 6 6 7 7 7 8 8 8 10 14 23 34 49 62 72 80 86 86 86 84 81 76 70 65 61 58 55 53 51 47 42 38 34 31 28 25 25 24 24
6 7 8 9 10 10 11 11 11 11 11 11 12 15 23 35 49 63 75 79 83 83 77 71 67 67 66 61 53 44 39 35 33 32 30 28 28 28 28 28 25 22 20
8 10 11 13 14 14 14 14 14 14 14 14 14 16 22 36 54 70 81 88 90 86 81 77 71 64 58 54 51 47 41 37 34 31 27 24 22 20 18 16 15 15 15
13 14 16 16 16 16 16 16 16 16 16 16 17 18 22 30 46 64 75 80 81 83 84 83 77 69 56 44 37 33 30 28 23 21 19 18 17 15 14 14 14 15 16
16 16 16 16 16 17 18 18 17 17 16 17 18 21 23 28 33 43 55 58 59 58 57 54 52 49 48 46 40 34 28 22 18 18 17 15 15 15 16 16 16 16 17
16 16 16 17 17 18 20 21 20 19 19 19 20 22 24 26 29 31 32 35 37 37 37 36 34 33 31 28 23 20 20 18 17 16 16 16 16 16 17 17 16 16 15
20 20 21 21 21 22 23 24 25 25 26 25 24 24 25 26 28 28 28 28 28 28 28 28 26 25 24 23 22 21 20 19 18 18 18 18 18 18 18 17 17 16 16

GFSGL_700_rhum_120.txt.gz
RH
54 48 47 45 41 40 41 42 45 45 52 47 46 52 55 61 67 82 99 98 87 74 64 62 57 59 56 48 56 39 28 39 77 80 98 97 100 99 100 99 100 98 76
60 56 52 50 49 57 53 50 50 54 60 57 60 64 66 69 75 75 81 86 79 76 75 68 61 63 66 63 61 44 30 37 76 94 97 98 100 100 100 100 100 100 99
83 74 69 67 65 65 63 62 64 64 66 67 68 65 63 62 71 73 79 74 73 77 77 74 65 66 73 65 75 50 32 40 67 96 95 98 100 100 99 100 100 100 99
84 79 75 71 69 66 63 61 60 58 56 50 54 63 68 71 72 75 74 76 74 77 82 81 76 71 79 81 71 56 37 46 75 96 98 96 99 99 100 100 100 100 99
87 75 65 61 62 62 59 58 61 63 64 65 56 47 44 45 48 54 65 66 75 87 98 95 82 93 99 82 56 66 42 53 90 91 90 99 97 98 98 100 100 100 100
86 81 72 75 82 97 86 68 78 85 77 76 75 72 80 74 94 92 100 87 83 98 98 88 99 96 98 100 89 74 48 66 85 90 96 98 98 99 100 100 100 99 98
79 78 77 84 91 89 95 100 97 99 98 98 100 99 97 97 100 100 100 98 96 97 95 98 99 88 92 98 100 72 55 68 88 99 98 96 98 99 99 100 100 99 100
36 44 66 72 80 88 94 97 98 99 99 100 99 99 98 94 98 97 95 99 100 93 91 100 100 99 99 99 99 96 62 74 92 100 95 94 98 98 99 100 100 100 99
36 34 30 29 31 48 73 76 79 86 93 98 99 98 96 97 100 99 99 100 100 99 97 100 100 100 99 100 100 97 97 86 99 100 100 96 92 92 98 100 99 99 99
50 47 45 44 40 36 32 31 35 48 57 66 73 75 81 85 91 94 99 100 99 99 100 100 99 99 100 100 99 100 98 86 99 100 100 100 97 100 100 100 100 100 99
38 38 39 39 40 41 41 41 40 37 35 34 36 40 52 67 70 71 81 94 97 98 99 100 100 100 100 100 99 99 100 88 97 99 100 92 99 95 88 100 98 100 100
33 34 36 37 37 37 36 35 35 35 36 37 38 38 37 39 44 51 64 72 75 80 92 97 96 98 99 99 99 99 99 99 100 100 99 100 100 100 100 98 100 100 100
29 28 26 27 27 28 29 30 31 33 35 36 36 35 35 35 36 38 41 52 65 75 80 83 85 94 96 97 98 98 98 99 99 99 99 99 100 100 100 100 99 100 100
11 11 10 10 10 10 10 10 12 14 19 24 29 34 38 39 39 38 39 41 46 53 65 75 79 81 83 85 88 94 95 96 96 97 97 97 97 98 98 98 99 99 99
13 12 12 12 12 12 12 12 12 12 12 13 13 15 20 30 39 45 48 48 47 46 46 51 61 73 79 83 86 89 90 95 98 96 96 96 96 96 97 95 96 96 96
11 9 7 6 6 6 6 5 5 5 6 7 8 11 14 15 19 28 37 46 53 56 57 55 54 57 66 79 89 92 93 95 95 96 98 98 97 96 95 94 95 96 96
6 6 6 5 5 5 5 5 5 5 4 4 5 5 5 6 10 17 25 40 56 62 64 66 67 66 64 64 64 72 85 94 97 98 97 97 98 98 96 96 96 95 95
5 5 5 6 5 5 5 4 4 4 4 4 4 4 5 5 6 9 15 23 38 57 72 78 79 78 77 77 76 76 75 75 79 84 87 90 95 98 97 97 97 96 96
6 6 6 5 5 5 5 5 5 5 5 5 5 5 5 5 6 8 11 22 35 48 61 73 82 84 84 83 81 79 76 75 73 72 70 68 66 64 60 57 54 52 54
6 6 6 6 6 6 7 7 8 9 9 9 9 9 9 8 8 9 11 18 32 50 66 74 78 81 81 78 73 69 66 63 58 54 51 48 43 40 38 35 33 30 26
6 6 6 7 7 8 10 12 13 14 14 14 14 14 13 13 12 12 14 22 40 61 73 77 78 73 66 65 66 62 56 49 43 40 37 32 29 27 25 25 24 24 24
7 8 8 9 10 12 13 15 15 16 16 16 15 15 15 15 15 15 18 30 49 71 82 88 79 65 57 54 48 43 38 33 31 28 27 26 25 24 24 23 23 22 20
10 12 13 13 14 14 14 14 15 16 16 17 17 16 16 16 17 19 21 26 42 61 68 70 73 76 69 54 43 35 30 31 28 25 25 24 22 20 19 17 16 16 15
14 15 16 17 17 17 17 18 18 18 19 20 20 19 18 17 18 21 24 28 32 42 50 52 49 48 46 49 52 56 49 39 33 28 23 19 18 17 16 15 14 14 14
17 19 20 22 23 24 23 22 22 22 23 25 25 24 23 22 21 22 26 27 28 30 32 35 35 34 32 31 31 31 28 26 23 21 20 19 17 17 16 16 16 16 17
26 27 28 29 30 31 32 31 29 27 26 28 30 30 31 31 29 26 26 28 28 29 29 29 29 29 28 27 26 25 24 23 22 21 20 19 18 18 18 18 18 18 18

GFSGL_700_rhum_123.txt.gz
RH
100 99 99 100 100 95 79 77 86 71 57 57 48 45 42 41 48 49 51 60 80 90 90 99 85 86 86 88 72 66 66 75 92 61 45 36 44 64 93 95 99 100 98
92 95 79 75 95 90 98 99 86 71 57 53 51 48 50 50 51 57 62 75 77 81 89 97 92 96 94 78 80 73 65 74 91 89 41 32 38 74 91 97 99 99 100
89 93 93 79 89 90 82 75 63 56 51 48 48 56 55 56 53 54 60 66 70 79 91 90 81 77 78 82 95 85 70 71 71 98 52 37 32 74 92 96 100 99 98
99 99 84 76 73 70 68 64 61 61 61 61 65 66 66 64 63 69 64 66 66 65 74 80 82 82 81 86 93 88 83 81 87 78 73 45 41 73 85 100 92 100 98
99 95 80 75 73 72 72 68 64 62 61 62 62 59 56 60 72 76 77 77 77 75 77 82 87 88 88 93 99 98 79 99 99 85 63 52 56 81 88 100 100 99 100
90 77 78 72 62 61 60 55 54 65 64 64 63 64 63 66 66 59 52 51 52 53 54 64 96 89 100 96 99 91 99 94 98 82 69 63 72 91 94 100 100 99 99
66 72 69 66 67 71 94 98 99 100 98 99 100 99 100 98 98 98 99 99 100 100 96 99 96 94 98 98 96 90 93 94 89 96 90 65 93 99 95 99 97 96 96
30 27 29 43 59 72 78 82 85 89 88 94 94 99 99 99 100 100 95 93 87 95 100 100 98 100 99 99 87 100 98 99 99 94 99 78 66 97 99 94 98 100 99
48 45 40 40 36 32 29 34 48 61 63 71 76 80 86 92 90 94 96 99 99 99 97 96 94 98 100 100 100 94 100 99 100 100 100 93 77 84 100 95 100 98 98
37 36 36 37 38 39 39 39 38 37 34 32 32 33 36 50 63 67 71 81 89 95 99 100 100 100 100 97 98 100 100 100 100 100 100 94 99 98 100 100 99 97 99
25 24 25 26 26 27 28 29 30 30 30 32 35 36 36 35 33 31 31 43 61 68 76 89 97 98 98 100 99 99 99 99 100 100 100 99 100 92 98 84 94 98 100
21 20 19 19 19 19 18 19 19 20 22 24 28 30 31 32 32 33 34 35 34 38 54 64 73 79 94 97 94 98 98 99 99 99 99 99 99 98 99 99 99 99 100
12 12 12 12 12 12 11 11 11 11 11 11 12 14 19 22 27 33 34 34 33 34 37 43 50 62 73 76 82 95 96 97 98 98 99 99 99 99 99 100 99 100 99
12 12 12 12 11 11 11 10 10 10 10 10 10 11 11 11 11 14 21 30 37 38 38 37 36 39 47 57 66 75 81 90 96 97 96 96 97 97 97 98 98 98 98
12 11 10 9 8 7 7 6 6 6 6 6 6 6 6 6 7 9 11 13 18 25 36 42 44 44 43 43 48 66 79 86 89 92 94 96 94 94 95 97 96 96 95
9 8 7 7 7 7 7 8 8 7 7 6 6 6 5 5 5 5 5 5 7 12 18 28 40 49 52 54 54 54 61 81 94 94 94 94 94 94 95 95 94 95 95
7 6 7 8 8 9 9 9 8 8 9 8 7 7 6 6 5 4 4 4 4 5 7 14 26 42 56 64 65 64 65 65 69 82 96 99 99 98 97 96 95 94 95
9 10 10 11 11 11 11 10 9 9 8 8 7 6 6 5 5 4 4 4 4 5 7 11 18 31 47 60 72 78 79 77 75 73 73 77 86 96 99 98 96 95 96
13 12 11 10 10 9 8 8 7 6 6 6 6 6 6 6 6 6 6 7 6 7 9 13 21 34 52 66 76 79 80 80 79 77 76 74 74 73 73 71 70 73 80
12 10 9 7 7 6 6 6 6 6 6 7 7 8 10 11 11 11 11 11 11 11 11 13 22 41 55 65 70 73 74 72 70 68 62 58 53 50 47 44 42 40 38
8 7 6 6 6 6 6 7 8 9 10 11 12 12 13 13 13 14 14 14 13 13 14 22 35 52 64 70 71 64 57 55 52 47 42 39 36 34 31 29 28 26 24
7 7 8 8 9 10 11 12 13 14 14 15 15 15 14 15 16 15 14 14 15 16 19 27 42 60 76 78 64 54 51 42 34 31 29 27 27 25 24 22 20 19 18
10 12 14 15 15 16 16 17 17 18 18 18 18 18 18 18 18 18 17 16 16 17 20 26 40 55 62 65 71 68 51 34 28 25 26 25 24 22 21 21 19 18 17
16 18 20 22 23 24 24 24 23 24 24 24 24 23 23 23 23 23 21 20 19 20 23 26 30 40 47 48 47 48 50 62 59 46 31 25 23 21 20 18 17 16 16
19 22 24 27 29 31 33 34 33 32 32 32 31 29 28 28 29 29 28 27 24 24 25 27 28 30 33 36 36 35 34 33 35 35 36 36 36 34 28 24 20 18 16
23 25 27 31 36 41 44 46 48 47 44 42 42 40 37 33 32 32 34 33 33 30 28 29 29 30 29 29 30 30 28 27 27 26 26 26 25 23 22 21 20 18 18